Weather History for PAGY - October, 2012

Change the Weather History Date:

Tuesday, October 2, 2012

  Actual Average Record
Temperature  
Mean Temperature 38 °F -  
Max Temperature 45 °F 49 °F 61 °F (1965)
Min Temperature 30 °F 39 °F 29 °F (1981)
Degree Days  
Heating Degree Days 28    
Moisture  
Dew Point 32 °F    
Average Humidity 83    
Maximum Humidity 96    
Minimum Humidity 58    
Precipitation  
Precipitation 0.00 in - - ()
Sea Level Pressure  
Sea Level Pressure 30.58 in    
Wind  
Wind Speed 2 mph (NE)    
Max Wind Speed 8 mph    
Max Gust Speed -    
Visibility 10 miles    
Events      
Averages and records for this station are not official NWS values.
T = Trace of Precipitation, MM = Missing Value Source: NWS Daily Summary

Daily Weather History Graph

Daily Weather History Graph

Search for Another Location

Airport or City:

Trip Planner

Search our weather history database for the weather conditions in past years. The results will help you decide how hot, cold, wet, or windy it might be!

Date:

Astronomy

Oct. 02, 2012 Rise Set
Actual Time 7:10 AM AKDT 6:29 PM AKDT
Civil Twilight 6:29 AM AKDT 7:09 PM AKDT
Nautical Twilight 5:41 AM AKDT 7:57 PM AKDT
Astronomical Twilight 4:51 AM AKDT 8:47 PM AKDT
Moon 6:52 PM AKDT (10/2) 10:36 AM AKDT (10/2)
Length of Visible Light 12h 40m
Length of Day
11h 18m
Waning Gibbous, 93% of the Moon is Illuminated
Oct 2
Waning Gibbous
Oct 7
Last Quarter
Oct 15
New
Oct 21
First Quarter
Oct 29
Full

Hourly Weather History & Observations

Time (AKDT) Temp. Windchill Dew Point Humidity Pressure Visibility Wind Dir Wind Speed Gust Speed Precip Events Conditions
12:53 AM 32.0 °F 28.7 °F 30.9 °F 96% 30.51 in 10.0 mi ENE 3.5 mph - N/A   Clear
1:53 AM 32.0 °F - 30.0 °F 92% 30.54 in 8.0 mi Calm Calm - N/A   Clear
2:53 AM 30.9 °F 26.2 °F 28.9 °F 92% 30.56 in 10.0 mi NNE 4.6 mph - N/A   Clear
3:53 AM 30.9 °F 27.5 °F 28.9 °F 92% 30.59 in 10.0 mi NE 3.5 mph - N/A   Clear
4:53 AM 30.9 °F - 28.9 °F 92% 30.61 in 10.0 mi Calm Calm - N/A   Clear
5:53 AM 30.0 °F - 28.0 °F 92% 30.62 in 10.0 mi Calm Calm - N/A   Clear
6:53 AM 30.0 °F - 28.0 °F 92% 30.63 in 10.0 mi Calm Calm - N/A   Clear
7:53 AM 30.0 °F - 28.9 °F 96% 30.63 in 10.0 mi Calm Calm - N/A   Clear
8:53 AM 30.0 °F - 28.9 °F 96% 30.65 in 7.0 mi Calm Calm - N/A   Clear
9:53 AM 32.0 °F - 30.0 °F 92% 30.63 in 10.0 mi Calm Calm - N/A   Clear
10:53 AM 36.0 °F - 33.1 °F 89% 30.64 in 10.0 mi Calm Calm - N/A   Clear
11:53 AM 39.0 °F - 34.0 °F 82% 30.63 in 10.0 mi Calm Calm - N/A   Clear
12:53 PM 39.9 °F - 34.0 °F 79% 30.61 in 10.0 mi Calm Calm - N/A   Clear
1:53 PM 42.1 °F - 32.0 °F 67% 30.61 in 10.0 mi Calm Calm - N/A   Clear
2:53 PM 45.0 °F - 30.9 °F 58% 30.59 in 10.0 mi Calm Calm - N/A   Clear
3:53 PM 45.0 °F 40.6 °F 33.1 °F 63% 30.57 in 10.0 mi SSW 8.1 mph - N/A   Clear
4:53 PM 45.0 °F 41.2 °F 33.1 °F 63% 30.56 in 10.0 mi South 6.9 mph - N/A   Clear
5:53 PM 44.1 °F 41.5 °F 34.0 °F 68% 30.55 in 10.0 mi West 4.6 mph - N/A   Clear
6:53 PM 41.0 °F 39.0 °F 34.0 °F 76% 30.56 in 10.0 mi NNE 3.5 mph - N/A   Clear
7:53 PM 39.0 °F 36.8 °F 34.0 °F 82% 30.55 in 10.0 mi ENE 3.5 mph - N/A   Clear
8:53 PM 39.0 °F 36.8 °F 35.1 °F 86% 30.54 in 10.0 mi North 3.5 mph - N/A   Clear
9:53 PM 39.0 °F 36.8 °F 34.0 °F 82% 30.54 in 10.0 mi NNE 3.5 mph - N/A   Partly Cloudy
10:53 PM 39.0 °F 36.8 °F 34.0 °F 82% 30.52 in 10.0 mi NE 3.5 mph - N/A   Overcast
11:53 PM 39.0 °F - 35.1 °F 86% 30.52 in 10.0 mi Calm Calm - N/A   Overcast